DW7214 Weather Reports


Display with metric or nautical units.
time (UTC)temp
F
wind
direction
speed
MPH
gust
MPH
rain 1hr
in
rain 24hr
in
rain mn
in
humidity
%
barometer
mb
20210617080334 55 13 0.0 0.0 0.00 0.00 0.00 100 1018.2
20210617075845 55 13 0.0 0.0 0.00 0.00 0.00 100 1018.2
20210617075335 56 13 0.0 0.0 0.00 0.00 0.00 100 1018.2
20210617074845 56 13 0.0 0.0 0.00 0.00 0.00 100 1018.2
20210617074335 56 13 0.0 0.0 0.00 0.00 0.00 100 1018.2
20210617073847 56 13 0.0 0.0 0.00 0.00 0.00 100 1018.2
20210617073337 56 13 0.0 0.0 0.00 0.00 0.00 100 1018.2
20210617072848 56 13 0.0 0.0 0.00 0.00 0.00 100 1018.2
20210617072338 57 13 0.0 0.0 0.00 0.00 0.00 100 1018.2
20210617071848 57 13 0.0 0.0 0.00 0.00 0.00 100 1018.2
20210617071337 57 13 0.0 0.0 0.00 0.00 0.00 100 1018.2
20210617070857 57 13 0.0 0.0 0.00 0.00 0.00 100 1018.2
20210617070337 57 13 0.0 0.0 0.00 0.00 0.00 100 1018.2
20210617065847 57 13 0.0 0.0 0.00 0.00 0.00 100 1018.2
20210617065337 57 13 0.0 0.0 0.00 0.00 0.00 100 1018.2
20210617064851 58 13 0.0 0.0 0.00 0.00 0.00 100 1018.2
20210617064341 58 13 0.0 0.0 0.00 0.00 0.00 100 1018.2
20210617063851 58 13 0.0 0.0 0.00 0.00 0.00 100 1018.2
20210617063343 59 13 0.0 0.0 0.00 0.00 0.00 100 1018.2
20210617062834 59 13 0.0 0.0 0.00 0.00 0.00 2 1018.2
20210617062345 59 13 0.0 0.0 0.00 0.00 0.00 5 1018.2
20210617061835 59 13 0.0 0.0 0.00 0.00 0.00 9 1018.2
20210617061345 60 13 0.0 0.0 0.00 0.00 0.00 11 1018.2
20210617060903 60 13 0.0 0.0 0.00 0.00 0.00 12 1018.3
20210617060343 60 13 0.0 0.0 0.00 0.00 0.00 15 1018.2
20210617055838 60 13 0.0 0.0 0.00 0.00 0.00 17 1018.2
20210617055348 60 13 0.0 0.0 0.00 0.00 0.00 21 1018.2
20210617054839 61 13 0.0 0.0 0.00 0.00 0.00 24 1018.2
20210617054349 61 13 0.0 0.0 0.00 0.00 0.00 26 1018.2
20210617053840 61 13 0.0 0.0 0.00 0.00 0.00 29 1018.2
20210617053334 62 13 0.0 0.0 0.00 0.00 0.00 31 1018.2
20210617052845 62 13 0.0 0.0 0.00 0.00 0.00 33 1018.2
20210617052332 62 13 0.0 0.0 0.00 0.00 0.00 36 1018.2
20210617051842 62 13 0.0 0.0 0.00 0.00 0.00 37 1018.2
20210617051336 62 13 0.0 0.0 0.00 0.00 0.00 40 1018.2
20210617050856 63 13 0.0 0.0 0.00 0.00 0.00 42 1018.2
20210617050335 63 13 0.0 0.0 0.00 0.00 0.00 46 1017.9
20210617045846 64 13 0.0 0.0 0.00 0.00 0.00 48 1018.0
20210617045337 64 13 0.0 0.0 0.00 0.00 0.00 50 1018.0
20210617044849 64 13 0.0 0.0 0.00 0.00 0.00 51 1017.7
20210617044338 64 13 0.0 0.0 0.00 0.00 0.00 52 1017.7
20210617043848 64 13 0.0 0.0 0.00 0.00 0.00 54 1017.7
20210617043341 65 13 0.0 0.0 0.00 0.00 0.00 56 1017.6
20210617042834 66 13 0.0 0.0 0.00 0.00 0.00 57 1017.6
20210617042344 67 13 0.0 0.0 0.00 0.00 0.00 58 1017.6
20210617041835 68 13 0.0 0.0 0.00 0.00 0.00 57 1017.7
20210617041344 69 13 0.0 0.0 0.00 0.00 0.00 52 1017.7
20210617040905 70 13 0.0 0.0 0.00 0.00 0.00 49 1017.7
20210617040346 70 13 0.0 0.0 0.00 0.00 0.00 47 1017.6
20210617035836 71 13 0.0 0.0 0.00 0.00 0.00 46 1017.6
20210617035346 71 13 0.0 0.0 0.00 0.00 0.00 45 1017.6
20210617034837 71 34 0.0 0.0 0.00 0.00 0.00 45 1017.6
20210617034331 71 34 0.0 0.0 0.00 0.00 0.00 45 1017.6
20210617033840 71 34 0.0 0.0 0.00 0.00 0.00 44 1017.6
20210617033334 72 34 0.0 0.0 0.00 0.00 0.00 44 1017.4
20210617032845 72 34 0.0 0.0 0.00 0.00 0.00 43 1017.4
20210617032336 72 43 0.0 0.0 0.00 0.00 0.00 42 1017.4
20210617031846 73 43 0.0 0.0 0.00 0.00 0.00 42 1017.2
20210617031337 73 43 0.0 0.0 0.00 0.00 0.00 42 1017.2
20210617030857 73 24 0.0 0.0 0.00 0.00 0.00 41 1017.2
20210617030336 73 360 0.0 0.0 0.00 0.00 0.00 39 1017.1
20210617025848 73 10 0.0 0.0 0.00 0.00 0.00 37 1017.1
20210617025342 74 10 0.0 0.0 0.00 0.00 0.00 37 1017.2
20210617024833 74 10 0.0 0.0 0.00 0.00 0.00 37 1017.2
20210617024344 74 10 0.0 0.0 0.00 0.00 0.00 34 1017.2
20210617023852 74 10 0.0 0.0 0.00 0.00 0.00 34 1017.2
20210617023345 74 10 0.0 0.0 0.00 0.00 0.00 34 1017.3
20210617022836 75 10 0.0 0.0 0.00 0.00 0.00 34 1017.3
20210617022347 75 10 0.0 0.0 0.00 0.00 0.00 34 1017.3
20210617021838 75 10 0.0 0.0 0.00 0.00 0.00 34 1017.4
20210617021349 75 10 1.0 0.0 0.00 0.00 0.00 34 1017.4
20210617020853 76 10 1.0 0.0 0.00 0.00 0.00 33 1017.4
20210617020335 76 10 1.0 0.0 0.00 0.00 0.00 30 1017.5
20210617015846 76 10 1.0 0.0 0.00 0.00 0.00 30 1017.5
20210617015337 76 12 2.0 0.0 0.00 0.00 0.00 30 1017.5
20210617014848 76 51 2.0 0.0 0.00 0.00 0.00 29 1017.6
20210617014339 76 35 2.0 0.0 0.00 0.00 0.00 31 1017.6
20210617013849 76 65 2.0 0.0 0.00 0.00 0.00 31 1017.6
20210617013342 76 9 1.0 0.0 0.00 0.00 0.00 31 1017.6
20210617012833 76 17 2.0 0.0 0.00 0.00 0.00 31 1017.6
20210617012344 77 5 2.0 0.0 0.00 0.00 0.00 30 1017.6
20210617011839 77 5 2.0 0.0 0.00 0.00 0.00 29 1017.7
20210617011350 76 5 3.0 0.0 0.00 0.00 0.00 29 1017.7
20210617010849 76 355 3.0 0.0 0.00 0.00 0.00 29 1017.7
20210617010331 76 36 3.0 0.0 0.00 0.00 0.00 32 1017.9
20210617005843 76 32 5.0 0.0 0.00 0.00 0.00 30 1017.9
20210617005334 76 63 4.0 0.0 0.00 0.00 0.00 31 1017.9
20210617004842 76 47 4.0 0.0 0.00 0.00 0.00 32 1018.2
20210617004333 76 61 4.0 0.0 0.00 0.00 0.00 32 1018.2
20210617003841 76 33 3.0 0.0 0.00 0.00 0.00 32 1018.2
20210617003339 76 5 3.0 0.0 0.00 0.00 0.00 32 1018.2
20210617002850 76 58 3.0 0.0 0.00 0.00 0.00 32 1018.2
20210617002341 76 355 3.0 0.0 0.00 0.00 0.00 32 1018.2
20210617001832 76 5 2.0 0.0 0.00 0.00 0.00 32 1018.3
20210617001343 76 278 2.0 0.0 0.00 0.00 0.00 34 1018.3
20210617000904 76 342 2.0 0.0 0.00 0.00 0.00 31 1018.3
20210617000345 76 348 3.0 0.0 0.00 0.00 0.00 34 1018.5
20210616235835 76 75 3.0 0.0 0.00 0.00 0.00 32 1018.5
20210616235346 76 41 2.0 0.0 0.00 0.00 0.00 30 1018.5
20210616234841 76 55 2.0 0.0 0.00 0.00 0.00 32 1018.7
20210616234332 76 47 2.0 0.0 0.00 0.00 0.00 33 1018.7
20210616233842 75 13 3.0 0.0 0.00 0.00 0.00 35 1018.7
20210616233333 75 59 3.0 0.0 0.00 0.00 0.00 34 1018.7
20210616232845 75 360 4.0 0.0 0.00 0.00 0.00 36 1018.7
20210616232337 75 349 5.0 0.0 0.00 0.00 0.00 37 1018.7
20210616231848 75 18 5.0 0.0 0.00 0.00 0.00 36 1018.8
20210616231339 75 34 4.0 0.0 0.00 0.00 0.00 37 1018.8
20210616230859 75 342 4.0 0.0 0.00 0.00 0.00 36 1018.8
20210616230338 75 360 3.0 0.0 0.00 0.00 0.00 36 1019.0
20210616225833 75 40 2.0 0.0 0.00 0.00 0.00 35 1019.0
20210616225344 75 11 1.0 0.0 0.00 0.00 0.00 40 1019.0
20210616224834 75 327 1.0 0.0 0.00 0.00 0.00 37 1019.2
20210616224345 74 42 2.0 0.0 0.00 0.00 0.00 38 1019.2
20210616223853 74 350 5.0 0.0 0.00 0.00 0.00 39 1019.2
20210616223343 73 9 6.0 0.0 0.00 0.00 0.00 40 1019.2
20210616222833 74 25 5.0 0.0 0.00 0.00 0.00 40 1019.2
20210616222344 74 61 4.0 0.0 0.00 0.00 0.00 41 1019.2
20210616221836 73 40 3.0 0.0 0.00 0.00 0.00 42 1019.3
20210616221350 73 355 4.0 0.0 0.00 0.00 0.00 45 1019.3
20210616220849 73 17 3.0 0.0 0.00 0.00 0.00 46 1019.3
20210616220347 73 27 4.0 0.0 0.00 0.00 0.00 46 1019.6
20210616215834 72 300 5.0 0.0 0.00 0.00 0.00 46 1019.6
20210616215344 72 338 4.0 0.0 0.00 0.00 0.00 47 1019.6
20210616214835 72 351 3.0 0.0 0.00 0.00 0.00 46 1019.7
20210616214346 72 348 4.0 0.0 0.00 0.00 0.00 50 1019.7
20210616213836 71 9 4.0 0.0 0.00 0.00 0.00 47 1019.7
20210616213350 72 355 4.0 0.0 0.00 0.00 0.00 50 1019.9
20210616212839 71 346 4.0 0.0 0.00 0.00 0.00 49 1019.9
20210616212332 72 20 3.0 0.0 0.00 0.00 0.00 49 1019.9
20210616211843 71 248 4.0 0.0 0.00 0.00 0.00 50 1020.2
20210616211333 70 5 5.0 0.0 0.00 0.00 0.00 50 1020.2
20210616210853 71 55 4.0 0.0 0.00 0.00 0.00 50 1020.2
20210616210336 71 28 4.0 0.0 0.00 0.00 0.00 51 1020.3
20210616205847 71 44 3.0 0.0 0.00 0.00 0.00 47 1020.3
20210616205339 71 47 2.0 0.0 0.00 0.00 0.00 48 1020.3
20210616204850 70 344 3.0 0.0 0.00 0.00 0.00 51 1020.2
20210616204341 71 5 3.0 0.0 0.00 0.00 0.00 48 1020.3
20210616203834 71 22 1.0 0.0 0.00 0.00 0.00 49 1020.3
20210616203345 71 355 1.0 0.0 0.00 0.00 0.00 50 1020.5
20210616202836 70 349 1.0 0.0 0.00 0.00 0.00 49 1020.4
20210616202347 69 339 2.0 0.0 0.00 0.00 0.00 50 1020.4
20210616201837 69 268 2.0 0.0 0.00 0.00 0.00 52 1020.8
20210616201349 69 23 1.0 0.0 0.00 0.00 0.00 50 1020.8
20210616200850 68 360 4.0 0.0 0.00 0.00 0.00 51 1020.8
20210616200330 68 9 4.0 0.0 0.00 0.00 0.00 51 1021.0
20210616195841 68 351 3.0 0.0 0.00 0.00 0.00 51 1021.0
20210616195336 68 296 2.0 0.0 0.00 0.00 0.00 49 1021.0
20210616194846 69 342 1.0 0.0 0.00 0.00 0.00 51 1021.1
20210616194337 67 355 1.0 0.0 0.00 0.00 0.00 52 1021.1
20210616193845 67 65 2.0 0.0 0.00 0.00 0.00 51 1021.1
20210616193337 67 55 2.0 0.0 0.00 0.00 0.00 50 1021.1
20210616192848 68 17 2.0 0.0 0.00 0.00 0.00 49 1021.2
20210616192339 67 302 2.0 0.0 0.00 0.00 0.00 50 1021.1
20210616191851 67 15 3.0 0.0 0.00 0.00 0.00 50 1021.4
20210616191340 67 338 3.0 0.0 0.00 0.00 0.00 50 1021.4
20210616190846 66 79 4.0 0.0 0.00 0.00 0.00 51 1021.4
20210616190346 66 5 4.0 0.0 0.00 0.00 0.00 51 1021.6
20210616185837 66 345 3.0 0.0 0.00 0.00 0.00 50 1021.6
20210616185348 67 74 2.0 0.0 0.00 0.00 0.00 50 1021.6
20210616184839 66 351 2.0 0.0 0.00 0.00 0.00 49 1021.7
20210616184350 66 9 1.0 0.0 0.00 0.00 0.00 50 1021.7
20210616183838 65 348 3.0 0.0 0.00 0.00 0.00 50 1021.6
20210616183331 65 360 5.0 0.0 0.00 0.00 0.00 50 1021.8
20210616182842 64 84 4.0 0.0 0.00 0.00 0.00 50 1021.8
20210616182333 64 296 4.0 0.0 0.00 0.00 0.00 49 1021.8
20210616181848 64 44 6.0 0.0 0.00 0.00 0.00 49 1021.9
20210616181339 64 9 4.0 0.0 0.00 0.00 0.00 49 1021.9
20210616180859 65 19 1.0 0.0 0.00 0.00 0.00 48 1021.9
20210616180337 64 322 3.0 0.0 0.00 0.00 0.00 48 1022.1
20210616175848 63 48 4.0 0.0 0.00 0.00 0.00 48 1022.1
20210616175339 64 16 3.0 0.0 0.00 0.00 0.00 47 1022.1
20210616174831 63 17 4.0 0.0 0.00 0.00 0.00 47 1022.3
20210616174342 63 355 3.0 0.0 0.00 0.00 0.00 47 1022.3
20210616173850 63 360 3.0 0.0 0.00 0.00 0.00 46 1022.3
20210616173341 62 49 5.0 0.0 0.00 0.00 0.00 47 1022.4
20210616172836 62 74 5.0 0.0 0.00 0.00 0.00 46 1022.4
20210616172346 62 345 5.0 0.0 0.00 0.00 0.00 46 1022.4
20210616171836 62 54 4.0 0.0 0.00 0.00 0.00 46 1022.4
20210616170846 61 355 3.0 0.0 0.00 0.00 0.00 45 1022.4
20210616170347 62 350 3.0 0.0 0.00 0.00 0.00 44 1022.5
20210616165838 62 40 4.0 0.0 0.00 0.00 0.00 44 1022.5
20210616165349 61 28 5.0 0.0 0.00 0.00 0.00 44 1022.4
20210616164840 61 13 4.0 0.0 0.00 0.00 0.00 44 1022.7
20210616164335 61 344 4.0 0.0 0.00 0.00 0.00 42 1022.7
20210616163846 61 45 4.0 0.0 0.00 0.00 0.00 41 1022.7
20210616163338 61 30 3.0 0.0 0.00 0.00 0.00 40 1022.9
20210616162848 60 5 2.0 0.0 0.00 0.00 0.00 38 1022.9
20210616162338 60 17 3.0 0.0 0.00 0.00 0.00 35 1022.9
20210616161830 60 30 3.0 0.0 0.00 0.00 0.00 37 1022.9
20210616161341 60 34 2.0 0.0 0.00 0.00 0.00 34 1022.9
20210616160902 60 33 1.0 0.0 0.00 0.00 0.00 34 1022.9
20210616160342 59 305 1.0 0.0 0.00 0.00 0.00 32 1023.0
20210616155836 59 347 2.0 0.0 0.00 0.00 0.00 25 1023.0
20210616155344 58 349 2.0 0.0 0.00 0.00 0.00 30 1023.0
20210616154835 58 29 2.0 0.0 0.00 0.00 0.00 30 1023.1
20210616154346 58 11 2.0 0.0 0.00 0.00 0.00 30 1023.1
20210616153836 57 49 2.0 0.0 0.00 0.00 0.00 29 1023.1
20210616153349 57 348 3.0 0.0 0.00 0.00 0.00 29 1023.3
20210616152837 57 11 2.0 0.0 0.00 0.00 0.00 33 1023.3
20210616152348 57 34 0.0 0.0 0.00 0.00 0.00 30 1023.3
20210616151839 57 327 1.0 0.0 0.00 0.00 0.00 29 1023.3
20210616151334 57 326 1.0 0.0 0.00 0.00 0.00 27 1023.3
20210616150853 56 51 1.0 0.0 0.00 0.00 0.00 26 1023.3
20210616150334 56 30 2.0 0.0 0.00 0.00 0.00 30 1023.4
20210616145842 56 9 1.0 0.0 0.00 0.00 0.00 30 1023.4
20210616145333 55 32 1.0 0.0 0.00 0.00 0.00 28 1023.4
20210616144844 55 26 1.0 0.0 0.00 0.00 0.00 28 1023.2
20210616144335 56 22 1.0 0.0 0.00 0.00 0.00 29 1023.2
20210616143841 55 348 1.0 0.0 0.00 0.00 0.00 26 1023.2
20210616143348 55 24 1.0 0.0 0.00 0.00 0.00 26 1023.1
20210616142839 55 5 1.0 0.0 0.00 0.00 0.00 25 1023.1
20210616142334 54 355 2.0 0.0 0.00 0.00 0.00 25 1023.1
20210616141844 54 14 1.0 0.0 0.00 0.00 0.00 24 1023.2
20210616141334 54 360 1.0 0.0 0.00 0.00 0.00 23 1023.2
20210616140855 54 28 2.0 0.0 0.00 0.00 0.00 21 1023.2
20210616140335 54 30 2.0 0.0 0.00 0.00 0.00 24 1023.5
20210616135846 54 351 1.0 0.0 0.00 0.00 0.00 22 1023.5
20210616135338 53 41 3.0 0.0 0.00 0.00 0.00 19 1023.5
20210616134830 53 38 4.0 0.0 0.00 0.00 0.00 17 1023.6
20210616134341 53 26 3.0 0.0 0.00 0.00 0.00 18 1023.6
20210616133834 53 5 3.0 0.0 0.00 0.00 0.00 17 1023.6
20210616133348 52 360 3.0 0.0 0.00 0.00 0.00 15 1023.6
20210616132838 52 355 3.0 0.0 0.00 0.00 0.00 15 1023.6
20210616132349 52 345 3.0 0.0 0.00 0.00 0.00 13 1023.6
20210616131840 52 5 3.0 0.0 0.00 0.00 0.00 12 1023.5
20210616131331 52 342 3.0 0.0 0.00 0.00 0.00 8 1023.5
20210616130850 51 329 5.0 0.0 0.00 0.00 0.00 2 1023.5
20210616130333 51 334 4.0 0.0 0.00 0.00 0.00 100 1023.6
20210616125843 50 10 3.0 0.0 0.00 0.00 0.00 100 1023.6
20210616125331 50 11 2.0 0.0 0.00 0.00 0.00 100 1023.6
20210616124846 50 344 1.0 0.0 0.00 0.00 0.00 100 1023.6
20210616124337 49 5 0.0 0.0 0.00 0.00 0.00 100 1023.6
20210616123846 49 9 0.0 0.0 0.00 0.00 0.00 100 1023.6
20210616123337 49 9 0.0 0.0 0.00 0.00 0.00 100 1023.7
20210616122848 50 9 0.0 0.0 0.00 0.00 0.00 100 1023.7
20210616122338 50 9 1.0 0.0 0.00 0.00 0.00 100 1023.7
20210616121849 50 9 3.0 0.0 0.00 0.00 0.00 100 1023.6
20210616121340 50 355 3.0 0.0 0.00 0.00 0.00 100 1023.6
20210616120900 50 344 3.0 0.0 0.00 0.00 0.00 100 1023.6
20210616120343 50 348 3.0 0.0 0.00 0.00 0.00 100 1023.6
20210616115838 50 347 3.0 0.0 0.00 0.00 0.00 100 1023.6
20210616115349 50 355 3.0 0.0 0.00 0.00 0.00 100 1023.6
20210616114839 49 5 3.0 0.0 0.00 0.00 0.00 100 1023.8
20210616114330 48 331 1.0 0.0 0.00 0.00 0.00 100 1023.8
20210616113839 48 348 0.0 0.0 0.00 0.00 0.00 100 1023.8
20210616113333 48 348 0.0 0.0 0.00 0.00 0.00 100 1024.0
20210616112844 48 348 0.0 0.0 0.00 0.00 0.00 100 1024.0
20210616112335 48 348 0.0 0.0 0.00 0.00 0.00 100 1024.0
20210616111846 48 348 0.0 0.0 0.00 0.00 0.00 100 1024.0
20210616111340 48 348 0.0 0.0 0.00 0.00 0.00 100 1024.0
20210616110901 48 348 0.0 0.0 0.00 0.00 0.00 100 1024.0
20210616110342 49 348 0.0 0.0 0.00 0.00 0.00 100 1024.0
20210616105833 49 348 0.0 0.0 0.00 0.00 0.00 100 1024.0
20210616105344 49 348 0.0 0.0 0.00 0.00 0.00 100 1024.0
20210616104836 49 348 0.0 0.0 0.00 0.00 0.00 100 1024.1
20210616104347 49 348 0.0 0.0 0.00 0.00 0.00 100 1024.1
20210616103833 50 348 0.0 0.0 0.00 0.00 0.00 100 1024.1
20210616103346 50 348 0.0 0.0 0.00 0.00 0.00 100 1024.0
20210616102840 50 348 0.0 0.0 0.00 0.00 0.00 100 1024.0
20210616102331 50 348 1.0 0.0 0.00 0.00 0.00 100 1024.0
20210616101843 50 348 2.0 0.0 0.00 0.00 0.00 100 1024.1
20210616101334 50 348 2.0 0.0 0.00 0.00 0.00 100 1024.1
20210616100853 49 336 2.0 0.0 0.00 0.00 0.00 100 1024.1
20210616100335 49 333 2.0 0.0 0.00 0.00 0.00 100 1024.2
20210616095844 48 240 0.0 0.0 0.00 0.00 0.00 100 1024.2
20210616095335 48 203 0.0 0.0 0.00 0.00 0.00 100 1024.2
20210616094846 48 202 0.0 0.0 0.00 0.00 0.00 100 1024.1
20210616094342 49 202 0.0 0.0 0.00 0.00 0.00 100 1024.1
20210616093851 49 202 0.0 0.0 0.00 0.00 0.00 100 1024.1
20210616093343 49 204 0.0 0.0 0.00 0.00 0.00 100 1024.1
20210616092835 49 204 0.0 0.0 0.00 0.00 0.00 100 1024.1
20210616092344 49 204 0.0 0.0 0.00 0.00 0.00 100 1024.1
20210616091835 49 204 0.0 0.0 0.00 0.00 0.00 100 1024.4
20210616091347 49 204 0.0 0.0 0.00 0.00 0.00 100 1024.4
20210616090848 49 204 0.0 0.0 0.00 0.00 0.00 100 1024.4
20210616090347 50 204 0.0 0.0 0.00 0.00 0.00 100 1024.5
20210616085839 50 204 0.0 0.0 0.00 0.00 0.00 100 1024.5
20210616085334 50 204 0.0 0.0 0.00 0.00 0.00 100 1024.5
20210616084845 50 204 0.0 0.0 0.00 0.00 0.00 100 1024.6
20210616084335 50 204 0.0 0.0 0.00 0.00 0.00 100 1024.6
20210616083843 50 204 0.0 0.0 0.00 0.00 0.00 100 1024.6
20210616083335 50 204 0.0 0.0 0.00 0.00 0.00 100 1024.6
20210616082847 51 204 0.0 0.0 0.00 0.00 0.00 100 1024.6
20210616082336 51 204 0.0 0.0 0.00 0.00 0.00 100 1024.6
20210616081847 51 204 0.0 0.0 0.00 0.00 0.00 100 1024.6
20210616081337 51 204 0.0 0.0 0.00 0.00 0.00 3 1024.6
20210616080844 52 204 0.0 0.0 0.00 0.00 0.00 5 1024.6